Location: Bauersach School (historical)
(38.0926°N, 89.4806°W)
Time: 02:11:27
(UTC+00:00)

CZ-4C R/B - Pass Details

Date: 11 December 2025
Orbit: 485 x 1495 km, 63.4° (Epoch: 15 January)

Event Time Altitude Azimuth Distance (km) Brightness Sun altitude
Rises 22:54:14 0° 331° (NNW) 3,770 5.6 -3.6°
Reaches altitude 10° 22:56:45 10° 337° (NNW) 2,955 5.0 -4.0°
Maximum altitude 23:03:48 50° 52° (NE) 1,597 3.3 -5.3°
Drops below altitude 10° 23:12:17 10° 126° (SE) 3,547 5.1 -6.8°
Sets 23:15:33 0° 131° (SE) 4,580 5.7 -7.4°
